Showing default

ASTRO H, 41337

Orbit data source: Space-Track

ASTRO H, 41337 is a Japanese payload satellite in LEO that was launched on Wed, 17 Feb 2016 UTC via an H-IIA 202 launch vehicle from the Tanegashima Space Center (TNSTA). Payload-class satellites include a variety of spacecraft equipped with specific instruments for various scientific and technological missions. These include communications satellites like Starlink; space stations such as the ISS; scientific satellites like the Hubble; Earth observation satellites from companies like Planet Labs, Umbra, and HawkEye 360; GPS; miniature CubeSats for education and research; and military/defense satellites.

Loading next visibility...
Identifier
41337, 2016-012A
Orbit
LEO
Country
Flag of JPJP / JPN
Related business
Manufacturer
TSUK/NECTF
Mission
Non-operational Civil Astronomy
Bus & Motor
ASTRO-H, Unknown motor
Mass
2,700 kg wet, 2,700 kg dry
Launch date (UTC)
2016-02-17 (10 years ago)
Launch vehicle
H-IIA 202
Launch site
Tanegashima Space Center (TNSTA)
Object type
Payload
Rocket body
Debris
Shape & HBR
Oct Cyl + 2 Pan + 1 Truss, 7.0 m
Radar Cross Section
16.262 m², Large (>1 m²)

Expand to show TLE details & history
Last TLE update: 13 hours ago

TLE from 13 hours ago
0 ASTRO H
1 41337U 16012A   25259.10873523  .00002812  00000-0  16988-3 0  9998
2 41337  31.0005  41.9470 0010101  19.1718 340.9299 15.08526239525834
Epoch: 2025-09-16T02:36Z
TLE epoch observation values (Epoch: 2025-09-16T02:36:34.723Z)
Latitude
Longitude
7.49856°
Altitude
532.61 km
Speed
7.603 km/s
True Right ascension
02h 47m 47s
True Declination
0° 00' 00"
Sunlit
Object was in full shadow at epoch
Visualization orbit readout
Latitude
Unknown
Longitude
Unknown
Altitude
Unknown
Speed
Unknown
Apparent Right ascension
Unknown
Apparent Declination
Unknown
Sunlit
N/A
Visualization observer readout
Local Sidereal Time
08:29:27
Azimuth
Unknown
Elevation
Unknown
Doppler factor
Unknown
Orbital elements
Apogee altitude
551.534 km
Perigee altitude
537.548 km
Semi-major axis
6,922.678 km
Eccentricity
0.00101
Inclination
31.0005°
RAAN
41.947°
Arg. of periapsis
19.1718°
True anomaly
340.89204°
Mean anomaly
340.9299°
Eccentric anomaly
340.91097°
Mean motion
3.76818 °/min
Orbital period
95.54 mins
BSTAR
0.00016988
Loading maneuver chart data...
Computing Atmospheric mass density...
Loading historical data...
Loading historical data...
Loading historical data...
Loading historical data...
Loading historical data...
Loading historical data...
Loading historical data...

Documentation

Showing up to 5 results
|